Home   Weather   Yokohama   Past weeks

Flag for Japan Past Weather in Yokohama, Japan — Yesterday and Last 2 Weeks

Now
34 °F

Passing clouds.


Feels Like: 26 °F
Forecast: 34 / 48 °F
Wind: 9 mph from Northwest

Location: Tokyo International Airport

Current Time: Jan 25, 2017 at 6:43:29 am

Latest Report: Jan 25, 2017 at 6:00 am


Visibility: N/A

Pressure: 30.24 "Hg

Humidity: 35%

Dew Point: 9 °F

Location of YokohamaLocation

Past Weather in Yokohama — Graph

°F

Yokohama Temperature Yesterday

Maximum temperature yesterday: 45 °F (at 1:30 pm)
Minimum temperature yesterday: 32 °F (at 12:30 am)
Average temperature yesterday: 38 °F

High & Low Weather Summary for the Past Weeks

 TemperatureHumidityPressure
High57 °F (Jan 22, 1:44 pm)81% (Jan 20, 7:30 pm)30.39 "Hg (Jan 20, 7:30 pm)
Low30 °F (Jan 15, 3:00 am)15% (Jan 24, 2:00 pm)29.47 "Hg (Jan 13, 1:30 pm)
Average43 °F46%29.88 "Hg
* Reported Jan 10 5:00 am — Jan 25 5:30 am, Yokohama, Weather by CustomWeather, © 2017

Note: Actual official high and low records may vary slightly from our data, if they occured in-between our weather recording intervals... More about our weather records

Advertising

Yokohama Weather History for the Previous 24 Hours

Scroll right to see more
 ConditionsComfort  
Time TempWeatherWind HumidityBarometerVisibility
5:30 am
Wed, Jan 25
34 °FClear.9 mph35%30.24 "Hg10 mi
5:00 am34 °FClear.9 mph35%30.21 "Hg10 mi
4:30 am36 °FClear.10 mph30%30.21 "Hg10 mi
4:00 am36 °FClear.13 mph30%30.21 "Hg10 mi
3:30 am36 °FClear.13 mph30%30.21 "Hg10 mi
3:00 am36 °FClear.12 mph32%30.21 "Hg10 mi
2:30 am36 °FClear.15 mph32%30.21 "Hg10 mi
2:00 am36 °FClear.10 mph35%30.21 "Hg10 mi
1:30 am36 °FClear.13 mph35%30.21 "Hg10 mi
1:00 am36 °FClear.10 mph35%30.21 "Hg10 mi
12:30 am36 °FClear.12 mph35%30.21 "Hg10 mi
12:00 am37 °FPassing clouds.15 mph33%30.21 "HgN/A
11:30 pm
Tue, Jan 24
37 °FClear.18 mph38%30.18 "Hg10 mi
11:00 pm37 °FClear.14 mph45%30.18 "Hg10 mi
10:30 pm36 °FClear.14 mph44%30.18 "Hg10 mi
10:00 pm36 °FClear.14 mph44%30.18 "Hg10 mi
9:30 pm37 °FClear.13 mph45%30.18 "Hg10 mi
9:00 pm37 °FClear.14 mph45%30.15 "Hg10 mi
8:30 pm37 °FClear.15 mph45%30.15 "Hg10 mi
8:00 pm37 °FClear.16 mph41%30.15 "Hg10 mi
7:30 pm39 °FClear.14 mph42%30.15 "Hg10 mi
7:00 pm39 °FClear.14 mph42%30.12 "Hg10 mi
6:30 pm39 °FPassing clouds.13 mph45%30.12 "HgN/A
6:00 pm41 °FPassing clouds.14 mph36%30.12 "HgN/A
5:30 pm41 °FPassing clouds.14 mph33%30.09 "HgN/A
5:00 pm43 °FPassing clouds.15 mph34%30.09 "HgN/A
4:30 pm41 °FScattered clouds.13 mph20%30.07 "HgN/A
4:00 pm45 °FPartly sunny.16 mph16%30.07 "HgN/A
3:30 pm45 °FScattered clouds.13 mph16%30.07 "HgN/A
3:00 pm45 °FPassing clouds.12 mph16%30.04 "HgN/A
2:30 pm45 °FPassing clouds.14 mph19%30.04 "HgN/A
2:00 pm45 °FPassing clouds.13 mph15%30.04 "HgN/A
1:30 pm45 °FPassing clouds.15 mph18%30.04 "HgN/A
1:00 pm43 °FPassing clouds.10 mph19%30.04 "HgN/A
12:30 pm43 °FPassing clouds.10 mph26%30.07 "HgN/A
12:00 pm43 °FPassing clouds.16 mph22%30.07 "HgN/A
11:30 am43 °FPassing clouds.17 mph19%30.09 "HgN/A
11:00 am41 °FPassing clouds.15 mph20%30.09 "HgN/A
10:30 am41 °FPassing clouds.13 mph19%30.09 "HgN/A
10:00 am41 °FPassing clouds.12 mph22%30.12 "HgN/A
9:30 am41 °FPassing clouds.9 mph22%30.12 "HgN/A
9:00 am39 °FPassing clouds.9 mph24%30.09 "HgN/A
8:30 am37 °FPassing clouds.8 mph28%30.09 "HgN/A
8:00 am36 °FPassing clouds.5 mph32%30.09 "HgN/A
7:30 am34 °FPassing clouds.6 mph32%30.09 "HgN/A
7:00 am32 °FPassing clouds.9 mph34%30.07 "HgN/A
6:30 am32 °FPassing clouds.8 mph34%30.07 "HgN/A
6:00 am32 °FPassing clouds.9 mph34%30.07 "HgN/A
Weather by CustomWeather, © 2017

See weather overviewHow to use our weather pages